STARLINK-1280, 45388

Orbit data source: Space-Track

STARLINK-1280, 45388 is a payload satellite owned by SpaceX/Seattle (US) in LEO that was launched on Wed, 18 Mar 2020 UTC via an FALCON 9 launch vehicle from the Air Force Eastern Test Range (AFETR). Payload-class satellites include a variety of spacecraft equipped with specific instruments for various scientific and technological missions. These include communications satellites like Starlink; space stations such as the ISS; scientific satellites like the Hubble; Earth observation satellites from companies like Planet Labs, Umbra, and HawkEye 360; GPS; miniature CubeSats for education and research; and military/defense satellites.

Loading next visibility...
Identifier
45388, 2020-019AE
Orbit
LEO
Country
Flag of USUS
Related business
Manufacturer
SpaceX/Seattle
Mission
Partially operational Commercial Communications
Bus & Motor
STARLINK, Unknown motor
Mass
260 kg wet, ~248 kg dry
Launch date (UTC)
2020-03-18 (6 years ago)
Launch vehicle
FALCON 9
Launch site
Air Force Eastern Test Range (AFETR)
Object type
Payload
Rocket body
Debris
Shape & HBR
Box + 1 Pan, 10.1 m
Radar Cross Section
13.562 m², Large (>1 m²)

Expand to show TLE details & history
Last TLE update: 2 days ago

TLE from 2 days ago
0 STARLINK-1280
1 45388U 20019AE  26171.00002315  .00121682  00000-0  50294-3 0  9991
2 45388  53.0348 334.2200 0001770 333.7829   9.5396 15.85026966  6003
Epoch: 2026-06-20T00:00Z
TLE epoch observation values (Epoch: 2026-06-20T00:00:02.000Z)
Latitude
-13.41107°
Longitude
55.71205°
Altitude
318.679 km
Speed
7.718 km/s
True Right ascension
21h 35m 45s
True Declination
-13° 19' 43"
Sunlit
Object was in full shadow at epoch
Visualization orbit readout
Latitude
Unknown
Longitude
Unknown
Altitude
Unknown
Speed
Unknown
Apparent Right ascension
Unknown
Apparent Declination
Unknown
Sunlit
N/A
Visualization observer readout
Local Sidereal Time
21:38:10
Azimuth
Unknown
Elevation
Unknown
Doppler factor
Unknown
Orbital elements
Apogee altitude
317.717 km
Perigee altitude
315.347 km
Semi-major axis
6,694.669 km
Eccentricity
0.00018
Inclination
53.0348°
RAAN
334.22°
Arg. of periapsis
333.7829°
True anomaly
9.54296°
Mean anomaly
9.5396°
Eccentric anomaly
9.54128°
Mean motion
3.96232 °/min
Orbital period
90.86 mins
BSTAR
0.00050294
Loading maneuver chart data...
Computing Atmospheric mass density...

Documentation

Showing up to 5 results
|